Find Starlink 30989

NORAD ID: 58510 Int'l Des: 2023-191 Owner: SPXS Country: US Constellation: starlink operational
LEOCIRCULAR

当前视图

正在加载3D地球...

About Starlink 30989

Starlink 30989 (NORAD 58510) is a starlink constellation satellite (v2 mini) launched Dec 7, 2023 by SPXS of US. It operates in LEO, CIRCULAR orbit with a mass of 730.00 kg.

关于 Starlink 30989

正在加载描述...

即将过境

Passes for default location (London). Set your location on the main map for personalized predictions.

高度历史

Loading altitude history...

两行轨道根数

1 58510U 23191C 26167.00077427 .00000149 00000-0 14940-4 0 9990
2 58510 43.0037 268.4967 0001496 277.5668 82.5013 15.27575709140531
Epoch: Jun 16, 2026 • Age: 15 hours

当前状态

高度 494.6 km
速度 7.62 km/s
星下点 -40.99°S, 19.21°E
发射日期 Dec 7, 2023
运行时间 2.5 years
类型 internet

技术详情

分类 Payload
质量 730.00 kg
干质量 700.00 kg
总质量 730.00 kg
长度 0.30 m
直径 4.10 m
跨度 29.00 m
形状 Box + pan
制造商 SPXS
平台类型 Starlink V2M
阶段状态 In Orbit
所有者/国家 SPXS/US

Most Searched